Вернуться в каталог

FENGYUN 1C DEB

АктивенPO
NORAD 30616·DEBRIS·🇨🇳 China

Запущен May 10, 1999 с Taiyuan Satellite Launch Center

Loading…

Ближайшие Пролёты (ближайшие 24 часа)

TLE

СвежийSource: Space-Track

Эпоха: Sep 14, 2026, 00:25 UTC

1 30616U 99025AMX 26257.01748701  .00000599  00000-0  81406-3 0  9996
2 30616  98.6239 278.6940 0380422 284.3648  71.5544 13.36610134953770

Отслеживайте FENGYUN 1C DEB в реальном времени с AllMySat

Download on the App Store